This demonstration page uses our WeatherBlox Daily Observations layout. Learn more.

Left ArrowRight Arrow

44.8408, -93.29828

Hourly Observations for June 12, 2015

Temp ( °F °C ) Dew Point ( °F °C ) Humidity (%) Winds ( mph kmh ) Pressure ( in mb ) Visibility ( mi km ) Precip ( " mm )
12:53 am 00:53 Mostly Clear 58 14.4 53 11.7 84 84 NE 7 11 29.89 1012 10 16 0.00 0.00
1:53 am 01:53 Mostly Clear 57 13.9 52 11.1 83 83 NE 9 15 29.90 1012 10 16 0.00 0.00
2:53 am 02:53 Partly Cloudy 56 13.3 51 10.6 84 84 NNE 9 15 29.89 1012 10 16 0.00 0.00
3:53 am 03:53 Mostly Clear 55 12.8 50 10 83 83 NNE 10 17 29.88 1012 10 16 0.00 0.00
4:53 am 04:53 Mostly Clear 54 12.2 50 10 87 87 NNE 7 11 29.89 1012 10 16 0.00 0.00
5:53 am 05:53 Mostly Sunny 53 11.7 50 10 89 89 NNE 6 9 29.90 1013 10 16 0.00 0.00
6:53 am 06:53 Mostly Sunny 57 13.9 49 9.4 74 74 ENE 6 9 29.92 1013 10 16 0.00 0.00
7:53 am 07:53 Mostly Sunny 60 15.6 49 9.4 67 67 ENE 13 20 29.92 1013 10 16 0.00 0.00
8:53 am 08:53 Mostly Sunny 64 17.8 53 11.7 68 68 NE 10 17 29.93 1014 10 16 0.00 0.00
9:53 am 09:53 Mostly Sunny 68 20 54 12.2 61 61 ENE 13 20 29.93 1014 10 16 0.00 0.00
10:53 am 10:53 Sunny 70 21.1 53 11.7 55 55 E 13 20 29.93 1013 10 16 0.00 0.00
11:53 am 11:53 Sunny 72 22.2 51 10.6 48 48 NE 12 19 29.92 1013 10 16 0.00 0.00
12:53 pm 12:53 Sunny 74 23.3 50 10 43 43 E 9 15 29.92 1013 10 16 0.00 0.00
1:53 pm 13:53 Mostly Sunny 76 24.4 50 10 40 40 E 13 20 29.91 1013 10 16 0.00 0.00
2:53 pm 14:53 Mostly Sunny 78 25.6 51 10.6 39 39 NE 15 24 29.90 1013 10 16 0.00 0.00
3:53 pm 15:53 Mostly Cloudy 78 25.6 49 9.4 36 36 ENE 17 28 29.89 1012 10 16 0.00 0.00
4:53 pm 16:53 Mostly Cloudy 78 25.6 51 10.6 39 39 E 13 20 29.89 1012 10 16 0.00 0.00
5:53 pm 17:53 Mostly Cloudy 78 25.6 52 11.1 40 40 E 14 22 29.88 1012 10 16 0.00 0.00
6:53 pm 18:53 Mostly Cloudy 76 24.4 52 11.1 43 43 E 12 19 29.87 1012 10 16 0.00 0.00
7:53 pm 19:53 Mostly Cloudy 75 23.9 53 11.7 46 46 VRB 6 9 29.88 1012 10 16 0.00 0.00
8:53 pm 20:53 Mostly Cloudy 73 22.8 52 11.1 48 48 SE 7 11 29.90 1012 10 16 0.00 0.00
9:53 pm 21:53 Mostly Cloudy 71 21.7 53 11.7 53 53 SE 7 11 29.91 1013 10 16 0.00 0.00
10:53 pm 22:53 Mostly Cloudy 69 20.6 54 12.2 59 59 ESE 6 9 29.91 1013 10 16 0.00 0.00
11:53 pm 23:53 Cloudy 68 20 55 12.8 63 63 SE 7 11 29.91 1013 10 16 0.00 0.00

Powered by AerisWeather